Tracking 28888 objects as of 22-May-2024
HD Live streaming from Space Station
objects crossing your sky now

STARLINK 1032

Track STARLINK 1032 now!
10-day predictions
STARLINK 1032 is classified as:


NORAD ID: 44737
Int'l Code: 2019-074AA
Perigee: 553.2 km
Apogee: 555.4 km
Inclination: 53.1 °
Period: 95.6 minutes
Semi major axis: 6925 km
RCS: Unknown
Launch date: November 11, 2019
Source: United States (US)
Launch site: AIR FORCE EASTERN TEST RANGE (AFETR)
Your satellite tracking list
Your tracking list is empty




NASA's NSSDC Master Catalog

Two Line Element Set (TLE):
1 44737U 19074AA  24142.60703060  .00011868  00000-0  81401-3 0  9992
2 44737  53.0549 276.3715 0001557 103.1823 256.9340 15.06413954249439
Source of the keplerian elements: AFSPC